Regional Weather Roundup
Issued by NWS

Home | Current Version | Previous Version | Graphics & Text | Print | Product List | Glossary On
Versions: 1 2 3 4 5 6 7 8 9 10 11 12 13 14 15 16 17 18 19 20 21 22 23 24 25 26 27 28 29 30 31 32 33 34 35 36 37 38 39 40 41 42 43 44 45 46 47 48 49 50
000
ASUS43 KOAX 242302
RWRNE

WEATHER ROUNDUP FOR NEBRASKA
NATIONAL WEATHER SERVICE OMAHA NE
500 PM CST FRI FEB 24 2017

NOTES: SATELLITE DATA IS BEING USED TO AUGMENT CLOUD COVER ABOVE
       12000 FEET.
       "FAIR" INDICATES FEW OR NO CLOUDS BELOW 12,000 FEET WITH NO
       SIGNIFICANT WEATHER AND/OR OBSTRUCTIONS TO VISIBILITY.

  * THESE STATIONS DO NOT REPORT WEATHER SUCH AS RAIN...SNOW OR FOG.

NEZ001>004-019>022-054>056-250000-
NEBRASKA PANHANDLE

CITY           SKY/WX    TMP DP  RH WIND       PRES   REMARKS
SCOTTSBLUFF    CLOUDY    25  17  72 CALM      30.04S
ALLIANCE       CLOUDY    22  16  78 N7        30.03R WCI  13
CHADRON        CLOUDY    20  14  77 W5        30.08S WCI  13
KIMBALL        CLOUDY    23  17  80 CALM      29.99S
SIDNEY         CLOUDY    22  14  71 NW8       30.02R WCI  12
$$

NEZ057>060-069>072-079>082-250000-
SOUTHWEST NEBRASKA

CITY           SKY/WX    TMP DP  RH WIND       PRES   REMARKS
NORTH PLATTE   CLOUDY    24  12  60 NW15      30.07R WCI  11
IMPERIAL       CLOUDY    25  16  68 N15       30.05R WCI  13
LEXINGTON      PTSUNNY   24  15  66 N17       30.06R WCI  11
MCCOOK         MOSUNNY   27  16  63 N15       30.06R WCI  15
OGALLALA       CLOUDY    27  17  65 N10       30.06R WCI  18
$$

NEZ005>010-023>029-035>040-094-250000-
NORTH CENTRAL NEBRASKA

CITY           SKY/WX    TMP DP  RH WIND       PRES   REMARKS
VALENTINE      CLOUDY    24  12  60 NW10      30.08R WCI  14
AINSWORTH      CLOUDY    23  16  75 NW14      30.06S WCI  11
BROKEN BOW     MOSUNNY   22  15  75 N23       30.04R WCI   6
O`NEILL        CLOUDY    25  18  74 NW17      30.03S WCI  11
ORD            MOSUNNY   24  14  65 N23G35    30.03R WCI   9
THEDFORD       CLOUDY    21  14  73 N13       30.07S WCI   9
$$

NEZ041-046>049-061>064-073>077-083>087-250000-
SOUTH CENTRAL NEBRASKA

CITY           SKY/WX    TMP DP  RH WIND       PRES   REMARKS
GRAND ISLAND   MOSUNNY   24  17  74 N28G35    30.02R WCI   7
AURORA         CLOUDY    25  18  76 NW21G26   30.01R WCI  10
HASTINGS       MOSUNNY   25  16  68 N25G31    30.03R WCI   9
HEBRON         PTSUNNY   25  18  74 N22G29    30.01R WCI  11
HOLDREGE       PTSUNNY   24  14  66 N14G26    30.04R WCI  12
KEARNEY *      MOSUNNY   25  12  58 N17G24    30.04R WCI  11
YORK           CLOUDY    25  18  74 N14       30.00R WCI  13
$$

NEZ011>018-030>034-042>045-250000-
NORTHEAST NEBRASKA

CITY           SKY/WX    TMP DP  RH WIND       PRES   REMARKS
NORFOLK        CLOUDY    25  15  66 NW21      29.97R WCI  11
ALBION         MOSUNNY   26  16  64 NW18G25   30.00R WCI  13
BLAIR          CLOUDY    26  18  72 NW22G29   29.91R WCI  11
FREMONT        PTSUNNY   26  18  73 NW15G24   29.96R WCI  13
TEKAMAH        MIX PCPN  26  16  65 NW22      29.94R WCI  12
WAYNE          CLOUDY    26  18  71 NW14G21   29.96R WCI  14
$$

NEZ050>053-065>068-078-088>093-250000-
SOUTHEAST NEBRASKA

CITY           SKY/WX    TMP DP  RH WIND       PRES   REMARKS
LINCOLN        MIX PCPN  27  17  66 N22G29    29.98R WCI  13
OMAHA EPPLEY   FLURRIES  26  17  68 N21G32    29.92R WCI  12
BEATRICE       CLOUDY    26  20  79 N28G36    29.97R WCI  10
FALLS CITY     LGT SNOW  26  22  84 NW20G35   29.91R FOG     WCI  12
NEBRASKA CITY  LGT SNOW  25  21  86 NW20G25   29.92R WCI  11
PLATTSMOUTH    LGT SNOW  24  19  78 NW15G23   29.92R WCI  12
$$

NEZ044-045-051>053-067-250000-
OMAHA AREA

CITY           SKY/WX    TMP DP  RH WIND       PRES   REMARKS
OMAHA EPPLEY   FLURRIES  26  17  68 N21G32    29.92R WCI  12
BLAIR          CLOUDY    26  18  72 NW22G29   29.91R WCI  11
FREMONT        PTSUNNY   26  18  73 NW15G24   29.96R WCI  13
MILLARD        CLOUDY    28  19  68 NW14G23   29.95R WCI  17
OFFUTT AFB     FLURRIES  25  18  74 NW15G28   29.93R WCI  13
PLATTSMOUTH    LGT SNOW  24  19  78 NW15G23   29.92R WCI  12
WAHOO          MOCLDY    26  17  69 NW21G31   29.96R WCI  11
$$




USA.gov is the U.S. government's official web portal to all federal, state and local government web resources and services.